Tracking 23099 objects as of 14-May-2021
HD Live streaming from Space Station
objects crossing your sky now

OF-2

Track OF-2 now!
10-day predictions
OF-2 is classified as:


NORAD ID: 45113
Int'l Code: 2019-071C
Perigee: 458.3 km
Apogee: 474.6 km
Inclination: 51.6 °
Period: 93.8 minutes
Semi major axis: 6837 km
RCS: Unknown
Launch date: November 2, 2019
Source: United States (US)
Launch site: WALLOPS ISLAND (WLPIS)

Uplink (MHz):
Downlink (MHz): 435.040/2426.000
Beacon (MHz):
Mode: 9k6 GMSK/3-5Mbps QPSK
Call sign: KG5UAK
Status: Inactive

aabbcc
Your satellite tracking list
Your tracking list is empty




NASA's NSSDC Master Catalog

Two Line Element Set (TLE):
1 45113U 19071C   21133.58978949  .00003374  00000-0  10698-3 0  9995
2 45113  51.6418 206.5243 0011912 165.6817 194.4506 15.35547885 71818
Source of the keplerian elements: Caltech